Datetime, Temperature (degree C), Humidity (%), Rainfall (6mn), Solar radiation (W.m^-2), Wind Direction (degree), Wind speed (m.s^-1), Gust Speed (m.s^-1), Gust Direction (degree), Air-pressure at station level (hPa), Air-pressure at sea levele (hPa), Longitude, Latitude
2022-02-21T00:00:00, 11.8, 50.0, 0.0, 0.0, 260.0, 3.6, 9999.999, 9999.999, 1012.4, 1021.0, 6.011558, 43.135978
2022-02-21T00:06:00, 11.9, 49.0, 0.0, 0.0, 260.0, 3.1, 9999.999, 9999.999, 1012.4, 1021.0, 6.011558, 43.135978
2022-02-21T00:12:00, 11.9, 49.0, 0.0, 0.0, 260.0, 2.5, 9999.999, 9999.999, 1012.3, 1020.9, 6.011558, 43.135978
2022-02-21T00:18:00, 11.8, 50.0, 0.0, 0.0, 250.0, 2.4, 9999.999, 9999.999, 1012.4, 1021.0, 6.011558, 43.135978
2022-02-21T00:24:00, 11.7, 51.0, 0.0, 0.0, 250.0, 2.7, 9999.999, 9999.999, 1012.3, 1020.9, 6.011558, 43.135978
2022-02-21T00:30:00, 11.6, 51.0, 0.0, 0.0, 240.0, 3.0, 9999.999, 9999.999, 1012.2, 1020.8, 6.011558, 43.135978
2022-02-21T00:36:00, 11.8, 50.0, 0.0, 0.0, 240.0, 2.8, 9999.999, 9999.999, 1012.1, 1020.7, 6.011558, 43.135978
2022-02-21T00:42:00, 11.8, 50.0, 0.0, 0.0, 250.0, 2.9, 9999.999, 9999.999, 1012.2, 1020.8, 6.011558, 43.135978
2022-02-21T00:48:00, 12.1, 49.0, 0.0, 0.0, 260.0, 3.3, 9999.999, 9999.999, 1012.1, 1020.7, 6.011558, 43.135978
2022-02-21T00:54:00, 11.8, 50.0, 0.0, 0.0, 260.0, 3.0, 9999.999, 9999.999, 1012.1, 1020.7, 6.011558, 43.135978
2022-02-21T01:00:00, 11.3, 52.0, 0.0, 0.0, 260.0, 3.0, 9999.999, 9999.999, 1012.1, 1020.7, 6.011558, 43.135978
2022-02-21T01:06:00, 11.3, 53.0, 0.0, 0.0, 250.0, 3.9, 9999.999, 9999.999, 1012.0, 1020.6, 6.011558, 43.135978
2022-02-21T01:12:00, 11.0, 54.0, 0.0, 0.0, 250.0, 3.7, 9999.999, 9999.999, 1012.0, 1020.6, 6.011558, 43.135978
2022-02-21T01:18:00, 11.0, 55.0, 0.0, 0.0, 240.0, 3.7, 9999.999, 9999.999, 1012.1, 1020.7, 6.011558, 43.135978
2022-02-21T01:24:00, 11.0, 55.0, 0.0, 0.0, 240.0, 3.8, 9999.999, 9999.999, 1012.0, 1020.6, 6.011558, 43.135978
2022-02-21T01:30:00, 11.0, 56.0, 0.0, 0.0, 240.0, 3.5, 9999.999, 9999.999, 1012.0, 1020.6, 6.011558, 43.135978
2022-02-21T01:36:00, 11.0, 57.0, 0.0, 0.0, 240.0, 4.1, 9999.999, 9999.999, 1011.9, 1020.5, 6.011558, 43.135978
2022-02-21T01:42:00, 10.9, 58.0, 0.0, 0.0, 240.0, 3.9, 9999.999, 9999.999, 1011.8, 1020.4, 6.011558, 43.135978
2022-02-21T01:48:00, 10.9, 59.0, 0.0, 0.0, 240.0, 4.3, 9999.999, 9999.999, 1011.7, 1020.3, 6.011558, 43.135978
2022-02-21T01:54:00, 10.9, 60.0, 0.0, 0.0, 240.0, 4.7, 9999.999, 9999.999, 1011.3, 1019.9, 6.011558, 43.135978
2022-02-21T02:00:00, 10.9, 60.0, 0.0, 0.0, 230.0, 4.6, 9999.999, 9999.999, 1011.1, 1019.7, 6.011558, 43.135978
2022-02-21T02:06:00, 10.9, 61.0, 0.0, 0.0, 230.0, 4.3, 9999.999, 9999.999, 1010.9, 1019.5, 6.011558, 43.135978
2022-02-21T02:12:00, 10.9, 61.0, 0.0, 0.0, 240.0, 4.4, 9999.999, 9999.999, 1011.0, 1019.6, 6.011558, 43.135978
2022-02-21T02:18:00, 10.9, 61.0, 0.0, 0.0, 240.0, 4.9, 9999.999, 9999.999, 1010.9, 1019.5, 6.011558, 43.135978
2022-02-21T02:24:00, 11.0, 61.0, 0.0, 0.0, 240.0, 4.1, 9999.999, 9999.999, 1010.9, 1019.5, 6.011558, 43.135978
2022-02-21T02:30:00, 11.0, 61.0, 0.0, 0.0, 250.0, 3.4, 9999.999, 9999.999, 1010.6, 1019.2, 6.011558, 43.135978
2022-02-21T02:36:00, 11.1, 61.0, 0.0, 0.0, 260.0, 3.3, 9999.999, 9999.999, 1010.4, 1019.0, 6.011558, 43.135978
2022-02-21T02:42:00, 11.3, 61.0, 0.0, 0.0, 270.0, 4.3, 9999.999, 9999.999, 1010.5, 1019.1, 6.011558, 43.135978
2022-02-21T02:48:00, 11.4, 60.0, 0.0, 0.0, 280.0, 5.6, 9999.999, 9999.999, 1010.6, 1019.2, 6.011558, 43.135978
2022-02-21T02:54:00, 11.5, 60.0, 0.0, 0.0, 280.0, 5.9, 9999.999, 9999.999, 1010.5, 1019.1, 6.011558, 43.135978
2022-02-21T03:00:00, 11.5, 60.0, 0.0, 0.0, 280.0, 4.9, 9999.999, 9999.999, 1010.5, 1019.1, 6.011558, 43.135978
2022-02-21T03:06:00, 11.4, 60.0, 0.0, 0.0, 270.0, 5.1, 9999.999, 9999.999, 1010.4, 1019.0, 6.011558, 43.135978
2022-02-21T03:12:00, 11.3, 60.0, 0.0, 0.0, 260.0, 4.3, 9999.999, 9999.999, 1010.3, 1018.9, 6.011558, 43.135978
2022-02-21T03:18:00, 11.3, 59.0, 0.0, 0.0, 260.0, 4.6, 9999.999, 9999.999, 1010.4, 1019.0, 6.011558, 43.135978
2022-02-21T03:24:00, 11.3, 59.0, 0.0, 0.0, 260.0, 4.0, 9999.999, 9999.999, 1010.4, 1019.0, 6.011558, 43.135978
2022-02-21T03:30:00, 11.4, 59.0, 0.0, 0.0, 260.0, 4.1, 9999.999, 9999.999, 1010.3, 1018.9, 6.011558, 43.135978
2022-02-21T03:36:00, 11.4, 58.0, 0.0, 0.0, 260.0, 4.3, 9999.999, 9999.999, 1010.2, 1018.8, 6.011558, 43.135978
2022-02-21T03:42:00, 11.6, 57.0, 0.0, 0.0, 260.0, 4.5, 9999.999, 9999.999, 1010.2, 1018.8, 6.011558, 43.135978
2022-02-21T03:48:00, 11.5, 56.0, 0.0, 0.0, 270.0, 4.5, 9999.999, 9999.999, 1010.0, 1018.6, 6.011558, 43.135978
2022-02-21T03:54:00, 11.5, 56.0, 0.0, 0.0, 270.0, 4.3, 9999.999, 9999.999, 1009.9, 1018.5, 6.011558, 43.135978
2022-02-21T04:00:00, 11.3, 57.0, 0.0, 0.0, 260.0, 3.8, 9999.999, 9999.999, 1009.9, 1018.5, 6.011558, 43.135978
2022-02-21T04:06:00, 11.1, 57.0, 0.0, 0.0, 260.0, 3.2, 9999.999, 9999.999, 1009.9, 1018.5, 6.011558, 43.135978
2022-02-21T04:12:00, 11.0, 58.0, 0.0, 0.0, 260.0, 3.7, 9999.999, 9999.999, 1010.0, 1018.6, 6.011558, 43.135978
2022-02-21T04:18:00, 11.1, 57.0, 0.0, 0.0, 260.0, 4.4, 9999.999, 9999.999, 1010.1, 1018.7, 6.011558, 43.135978
2022-02-21T04:24:00, 11.1, 57.0, 0.0, 0.0, 260.0, 4.4, 9999.999, 9999.999, 1010.1, 1018.7, 6.011558, 43.135978
2022-02-21T04:30:00, 11.1, 56.0, 0.0, 0.0, 250.0, 5.0, 9999.999, 9999.999, 1009.8, 1018.4, 6.011558, 43.135978
2022-02-21T04:36:00, 11.2, 55.0, 0.0, 0.0, 250.0, 5.1, 9999.999, 9999.999, 1010.0, 1018.6, 6.011558, 43.135978
2022-02-21T04:42:00, 11.1, 55.0, 0.0, 0.0, 250.0, 4.8, 9999.999, 9999.999, 1010.0, 1018.6, 6.011558, 43.135978
2022-02-21T04:48:00, 11.1, 55.0, 0.0, 0.0, 250.0, 4.6, 9999.999, 9999.999, 1010.2, 1018.8, 6.011558, 43.135978
2022-02-21T04:54:00, 11.0, 56.0, 0.0, 0.0, 250.0, 4.6, 9999.999, 9999.999, 1009.9, 1018.5, 6.011558, 43.135978
2022-02-21T05:00:00, 11.0, 56.0, 0.0, 0.0, 250.0, 3.9, 9999.999, 9999.999, 1009.8, 1018.4, 6.011558, 43.135978
2022-02-21T05:06:00, 11.1, 55.0, 0.0, 0.0, 280.0, 3.2, 9999.999, 9999.999, 1009.8, 1018.4, 6.011558, 43.135978
2022-02-21T05:12:00, 11.3, 54.0, 0.0, 0.0, 280.0, 3.6, 9999.999, 9999.999, 1009.7, 1018.3, 6.011558, 43.135978
2022-02-21T05:18:00, 11.4, 53.0, 0.0, 0.0, 270.0, 3.6, 9999.999, 9999.999, 1009.7, 1018.3, 6.011558, 43.135978
2022-02-21T05:24:00, 11.7, 52.0, 0.0, 0.0, 270.0, 4.8, 9999.999, 9999.999, 1009.7, 1018.3, 6.011558, 43.135978
2022-02-21T05:30:00, 11.6, 52.0, 0.0, 0.0, 270.0, 4.2, 9999.999, 9999.999, 1009.6, 1018.2, 6.011558, 43.135978
2022-02-21T05:36:00, 11.7, 52.0, 0.0, 0.0, 270.0, 4.5, 9999.999, 9999.999, 1009.4, 1018.0, 6.011558, 43.135978
2022-02-21T05:42:00, 11.7, 52.0, 0.0, 0.0, 270.0, 5.5, 9999.999, 9999.999, 1009.4, 1018.0, 6.011558, 43.135978
2022-02-21T05:48:00, 11.6, 53.0, 0.0, 0.0, 270.0, 4.6, 9999.999, 9999.999, 1009.5, 1018.1, 6.011558, 43.135978
2022-02-21T05:54:00, 11.5, 54.0, 0.0, 0.0, 280.0, 4.4, 9999.999, 9999.999, 1009.6, 1018.2, 6.011558, 43.135978
2022-02-21T06:00:00, 11.4, 55.0, 0.0, 0.0, 290.0, 5.7, 9999.999, 9999.999, 1009.5, 1018.1, 6.011558, 43.135978
2022-02-21T06:06:00, 11.3, 55.0, 0.0, 0.0, 290.0, 5.2, 9999.999, 9999.999, 1009.4, 1018.0, 6.011558, 43.135978
2022-02-21T06:12:00, 11.3, 55.0, 0.0, 0.0, 280.0, 5.2, 9999.999, 9999.999, 1009.4, 1018.0, 6.011558, 43.135978
2022-02-21T06:18:00, 11.2, 55.0, 0.0, 0.0, 280.0, 5.3, 9999.999, 9999.999, 1009.8, 1018.4, 6.011558, 43.135978
2022-02-21T06:24:00, 11.1, 57.0, 0.0, 0.0, 270.0, 5.2, 9999.999, 9999.999, 1009.6, 1018.2, 6.011558, 43.135978
2022-02-21T06:30:00, 11.1, 58.0, 0.0, 0.0, 260.0, 6.1, 9999.999, 9999.999, 1009.5, 1018.1, 6.011558, 43.135978
2022-02-21T06:36:00, 11.0, 58.0, 0.0, 0.0, 270.0, 6.6, 9999.999, 9999.999, 1009.8, 1018.4, 6.011558, 43.135978
2022-02-21T06:42:00, 11.1, 58.0, 0.0, 0.0, 270.0, 6.1, 9999.999, 9999.999, 1009.9, 1018.5, 6.011558, 43.135978
2022-02-21T06:48:00, 11.1, 58.0, 0.0, 0.0, 270.0, 6.5, 9999.999, 9999.999, 1010.0, 1018.6, 6.011558, 43.135978
2022-02-21T06:54:00, 11.1, 58.0, 0.0, 400.0, 260.0, 6.7, 9999.999, 9999.999, 1010.0, 1018.6, 6.011558, 43.135978
2022-02-21T07:00:00, 11.0, 59.0, 0.0, 5400.0, 260.0, 5.5, 9999.999, 9999.999, 1009.7, 1018.3, 6.011558, 43.135978
2022-02-21T07:06:00, 11.1, 59.0, 0.0, 7000.0, 270.0, 5.0, 9999.999, 9999.999, 1010.0, 1018.6, 6.011558, 43.135978
2022-02-21T07:12:00, 11.3, 58.0, 0.0, 8100.0, 280.0, 5.4, 9999.999, 9999.999, 1009.9, 1018.5, 6.011558, 43.135978
2022-02-21T07:18:00, 11.4, 58.0, 0.0, 13200.0, 270.0, 4.6, 9999.999, 9999.999, 1010.0, 1018.6, 6.011558, 43.135978
2022-02-21T07:24:00, 11.6, 58.0, 0.0, 37600.0, 250.0, 4.2, 9999.999, 9999.999, 1009.8, 1018.4, 6.011558, 43.135978
2022-02-21T07:30:00, 11.6, 58.0, 0.0, 47200.0, 240.0, 5.1, 9999.999, 9999.999, 1009.7, 1018.3, 6.011558, 43.135978
2022-02-21T07:36:00, 11.7, 58.0, 0.0, 54900.0, 230.0, 5.6, 9999.999, 9999.999, 1009.8, 1018.4, 6.011558, 43.135978
2022-02-21T07:42:00, 11.8, 58.0, 0.0, 61200.0, 240.0, 5.2, 9999.999, 9999.999, 1009.8, 1018.4, 6.011558, 43.135978
2022-02-21T07:48:00, 11.9, 58.0, 0.0, 68100.0, 250.0, 5.2, 9999.999, 9999.999, 1009.6, 1018.2, 6.011558, 43.135978
2022-02-21T07:54:00, 12.0, 58.0, 0.0, 75300.0, 240.0, 5.2, 9999.999, 9999.999, 1009.5, 1018.1, 6.011558, 43.135978
2022-02-21T08:00:00, 12.0, 58.0, 0.0, 81900.0, 240.0, 5.1, 9999.999, 9999.999, 1009.3, 1017.9, 6.011558, 43.135978
2022-02-21T08:06:00, 12.2, 58.0, 0.0, 88100.0, 240.0, 5.5, 9999.999, 9999.999, 1009.2, 1017.8, 6.011558, 43.135978
2022-02-21T08:12:00, 12.4, 58.0, 0.0, 93900.0, 250.0, 5.5, 9999.999, 9999.999, 1009.1, 1017.7, 6.011558, 43.135978
2022-02-21T08:18:00, 12.6, 58.0, 0.0, 98100.0, 250.0, 5.1, 9999.999, 9999.999, 1009.0, 1017.6, 6.011558, 43.135978
2022-02-21T08:24:00, 12.7, 58.0, 0.0, 98300.0, 250.0, 4.9, 9999.999, 9999.999, 1009.0, 1017.6, 6.011558, 43.135978
2022-02-21T08:30:00, 12.9, 58.0, 0.0, 108100.0, 250.0, 5.2, 9999.999, 9999.999, 1008.9, 1017.5, 6.011558, 43.135978
2022-02-21T08:36:00, 13.2, 57.0, 0.0, 120400.0, 260.0, 5.0, 9999.999, 9999.999, 1008.8, 1017.3, 6.011558, 43.135978
2022-02-21T08:42:00, 13.3, 57.0, 0.0, 126400.0, 260.0, 4.8, 9999.999, 9999.999, 1008.8, 1017.3, 6.011558, 43.135978
2022-02-21T08:48:00, 13.4, 58.0, 0.0, 124900.0, 260.0, 4.7, 9999.999, 9999.999, 1008.7, 1017.2, 6.011558, 43.135978
2022-02-21T08:54:00, 13.6, 57.0, 0.0, 135600.0, 9999.999, 4.3, 9999.999, 9999.999, 1008.6, 1017.1, 6.011558, 43.135978
2022-02-21T09:00:00, 13.7, 57.0, 0.0, 138700.0, 9999.999, 4.9, 9999.999, 9999.999, 1008.6, 1017.1, 6.011558, 43.135978
2022-02-21T09:06:00, 13.8, 56.0, 0.0, 146800.0, 9999.999, 5.0, 9999.999, 9999.999, 1008.4, 1016.9, 6.011558, 43.135978
2022-02-21T09:12:00, 14.1, 55.0, 0.0, 156600.0, 9999.999, 5.4, 9999.999, 9999.999, 1008.2, 1016.7, 6.011558, 43.135978
2022-02-21T09:18:00, 13.8, 55.0, 0.0, 161100.0, 9999.999, 6.8, 9999.999, 9999.999, 1008.3, 1016.8, 6.011558, 43.135978
2022-02-21T09:24:00, 14.2, 56.0, 0.0, 167000.0, 9999.999, 6.0, 9999.999, 9999.999, 1008.3, 1016.8, 6.011558, 43.135978
2022-02-21T09:30:00, 14.2, 55.0, 0.0, 144400.0, 9999.999, 4.9, 9999.999, 9999.999, 1008.2, 1016.7, 6.011558, 43.135978
2022-02-21T09:36:00, 14.1, 55.0, 0.0, 161300.0, 9999.999, 6.0, 9999.999, 9999.999, 1008.2, 1016.7, 6.011558, 43.135978
2022-02-21T09:42:00, 14.3, 56.0, 0.0, 189600.0, 9999.999, 6.2, 9999.999, 9999.999, 1008.1, 1016.6, 6.011558, 43.135978
2022-02-21T09:48:00, 14.5, 55.0, 0.0, 191300.0, 9999.999, 5.9, 9999.999, 9999.999, 1008.0, 1016.5, 6.011558, 43.135978
2022-02-21T09:54:00, 14.4, 55.0, 0.0, 169700.0, 9999.999, 6.3, 9999.999, 9999.999, 1008.1, 1016.6, 6.011558, 43.135978
2022-02-21T10:00:00, 14.5, 55.0, 0.0, 174300.0, 9999.999, 6.1, 9999.999, 9999.999, 1008.0, 1016.5, 6.011558, 43.135978
2022-02-21T10:06:00, 14.8, 54.0, 0.0, 197200.0, 9999.999, 5.6, 9999.999, 9999.999, 1007.9, 1016.4, 6.011558, 43.135978
2022-02-21T10:12:00, 14.8, 54.0, 0.0, 202600.0, 9999.999, 6.1, 9999.999, 9999.999, 1008.1, 1016.6, 6.011558, 43.135978
2022-02-21T10:18:00, 15.1, 54.0, 0.0, 206400.0, 9999.999, 5.5, 9999.999, 9999.999, 1007.9, 1016.4, 6.011558, 43.135978
2022-02-21T10:24:00, 15.1, 53.0, 0.0, 208300.0, 9999.999, 5.8, 9999.999, 9999.999, 1007.6, 1016.1, 6.011558, 43.135978
2022-02-21T10:30:00, 14.9, 53.0, 0.0, 200500.0, 9999.999, 6.5, 9999.999, 9999.999, 1007.6, 1016.1, 6.011558, 43.135978
2022-02-21T10:36:00, 15.2, 53.0, 0.0, 212100.0, 9999.999, 6.4, 9999.999, 9999.999, 1007.6, 1016.1, 6.011558, 43.135978
2022-02-21T10:42:00, 15.4, 53.0, 0.0, 194400.0, 9999.999, 6.5, 9999.999, 9999.999, 1007.4, 1015.9, 6.011558, 43.135978
2022-02-21T10:48:00, 15.5, 50.0, 0.0, 217200.0, 9999.999, 6.5, 9999.999, 9999.999, 1007.3, 1015.8, 6.011558, 43.135978
2022-02-21T10:54:00, 15.8, 50.0, 0.0, 214600.0, 9999.999, 6.1, 9999.999, 9999.999, 1007.4, 1015.9, 6.011558, 43.135978
2022-02-21T11:00:00, 16.2, 47.0, 0.0, 240400.0, 9999.999, 6.0, 9999.999, 9999.999, 1007.3, 1015.7, 6.011558, 43.135978
2022-02-21T11:06:00, 16.1, 48.0, 0.0, 222000.0, 9999.999, 5.7, 9999.999, 9999.999, 1007.4, 1015.8, 6.011558, 43.135978
2022-02-21T11:12:00, 15.6, 46.0, 0.0, 194300.0, 9999.999, 7.5, 9999.999, 9999.999, 1007.3, 1015.8, 6.011558, 43.135978
2022-02-21T11:18:00, 15.9, 48.0, 0.0, 248700.0, 9999.999, 8.2, 9999.999, 9999.999, 1007.0, 1015.4, 6.011558, 43.135978
2022-02-21T11:24:00, 15.6, 48.0, 0.0, 201900.0, 9999.999, 8.8, 9999.999, 9999.999, 1007.0, 1015.5, 6.011558, 43.135978
2022-02-21T11:30:00, 15.9, 52.0, 0.0, 248400.0, 9999.999, 8.5, 9999.999, 9999.999, 1006.7, 1015.1, 6.011558, 43.135978
2022-02-21T11:36:00, 14.7, 58.0, 0.0, 135200.0, 9999.999, 7.3, 9999.999, 9999.999, 1006.9, 1015.4, 6.011558, 43.135978
2022-02-21T11:42:00, 14.2, 60.0, 0.0, 128800.0, 9999.999, 7.5, 9999.999, 9999.999, 1006.8, 1015.3, 6.011558, 43.135978
2022-02-21T11:48:00, 14.3, 61.0, 0.0, 113700.0, 9999.999, 6.4, 9999.999, 9999.999, 1006.4, 1014.9, 6.011558, 43.135978
2022-02-21T11:54:00, 14.6, 57.0, 0.0, 181600.0, 9999.999, 6.2, 9999.999, 9999.999, 1006.3, 1014.8, 6.011558, 43.135978
2022-02-21T12:00:00, 15.3, 50.0, 0.0, 174000.0, 9999.999, 6.0, 9999.999, 9999.999, 1006.2, 1014.7, 6.011558, 43.135978
2022-02-21T12:06:00, 15.8, 41.0, 0.0, 224700.0, 9999.999, 6.2, 9999.999, 9999.999, 1006.0, 1014.4, 6.011558, 43.135978
2022-02-21T12:12:00, 16.5, 38.0, 0.0, 242600.0, 9999.999, 6.0, 9999.999, 9999.999, 1005.9, 1014.3, 6.011558, 43.135978
2022-02-21T12:18:00, 16.5, 34.0, 0.0, 257700.0, 9999.999, 5.7, 9999.999, 9999.999, 1005.6, 1014.0, 6.011558, 43.135978
2022-02-21T12:24:00, 16.8, 29.0, 0.0, 254800.0, 9999.999, 6.6, 9999.999, 9999.999, 1006.0, 1014.4, 6.011558, 43.135978
2022-02-21T12:30:00, 15.9, 30.0, 0.0, 142300.0, 9999.999, 8.0, 9999.999, 9999.999, 1006.1, 1014.5, 6.011558, 43.135978
2022-02-21T12:36:00, 15.6, 32.0, 0.0, 176100.0, 9999.999, 8.5, 9999.999, 9999.999, 1006.3, 1014.8, 6.011558, 43.135978
2022-02-21T12:42:00, 15.7, 33.0, 0.0, 231000.0, 9999.999, 7.7, 9999.999, 9999.999, 1006.3, 1014.8, 6.011558, 43.135978
2022-02-21T12:48:00, 15.5, 29.0, 0.0, 225200.0, 9999.999, 8.0, 9999.999, 9999.999, 1006.1, 1014.6, 6.011558, 43.135978
2022-02-21T12:54:00, 15.6, 28.0, 0.0, 223000.0, 9999.999, 8.4, 9999.999, 9999.999, 1005.8, 1014.3, 6.011558, 43.135978
2022-02-21T13:00:00, 15.5, 22.0, 0.0, 223500.0, 9999.999, 7.9, 9999.999, 9999.999, 1006.2, 1014.7, 6.011558, 43.135978
2022-02-21T13:06:00, 15.3, 23.0, 0.0, 219000.0, 9999.999, 10.0, 9999.999, 9999.999, 1006.0, 1014.5, 6.011558, 43.135978
2022-02-21T13:12:00, 15.4, 24.0, 0.0, 215900.0, 9999.999, 9.1, 9999.999, 9999.999, 1005.7, 1014.2, 6.011558, 43.135978
2022-02-21T13:18:00, 15.4, 24.0, 0.0, 214000.0, 9999.999, 8.4, 9999.999, 9999.999, 1005.9, 1014.4, 6.011558, 43.135978
2022-02-21T13:24:00, 15.4, 22.0, 0.0, 211300.0, 9999.999, 8.1, 9999.999, 9999.999, 1006.1, 1014.6, 6.011558, 43.135978
2022-02-21T13:30:00, 15.7, 22.0, 0.0, 210500.0, 9999.999, 7.7, 9999.999, 9999.999, 1006.5, 1015.0, 6.011558, 43.135978
2022-02-21T13:36:00, 15.1, 23.0, 0.0, 206300.0, 9999.999, 8.1, 9999.999, 9999.999, 1005.9, 1014.4, 6.011558, 43.135978
2022-02-21T13:42:00, 15.4, 24.0, 0.0, 202600.0, 9999.999, 8.0, 9999.999, 9999.999, 1006.4, 1014.9, 6.011558, 43.135978
2022-02-21T13:48:00, 14.9, 24.0, 0.0, 197700.0, 9999.999, 7.2, 9999.999, 9999.999, 1006.5, 1015.0, 6.011558, 43.135978
2022-02-21T13:54:00, 15.0, 24.0, 0.0, 193600.0, 9999.999, 8.5, 9999.999, 9999.999, 1006.7, 1015.2, 6.011558, 43.135978
2022-02-21T14:00:00, 15.0, 23.0, 0.0, 191800.0, 9999.999, 8.1, 9999.999, 9999.999, 1006.9, 1015.4, 6.011558, 43.135978
2022-02-21T14:06:00, 15.2, 22.0, 0.0, 187200.0, 9999.999, 7.6, 9999.999, 9999.999, 1007.3, 1015.8, 6.011558, 43.135978
2022-02-21T14:12:00, 14.9, 24.0, 0.0, 184500.0, 9999.999, 8.1, 9999.999, 9999.999, 1007.3, 1015.8, 6.011558, 43.135978
2022-02-21T14:18:00, 14.8, 22.0, 0.0, 175900.0, 9999.999, 8.5, 9999.999, 9999.999, 1007.1, 1015.6, 6.011558, 43.135978
2022-02-21T14:24:00, 14.6, 23.0, 0.0, 171500.0, 9999.999, 9.2, 9999.999, 9999.999, 1007.1, 1015.6, 6.011558, 43.135978
2022-02-21T14:30:00, 14.8, 22.0, 0.0, 155700.0, 9999.999, 7.7, 9999.999, 9999.999, 1007.1, 1015.6, 6.011558, 43.135978
2022-02-21T14:36:00, 14.6, 23.0, 0.0, 158700.0, 9999.999, 7.2, 9999.999, 9999.999, 1007.2, 1015.7, 6.011558, 43.135978
2022-02-21T14:42:00, 14.8, 22.0, 0.0, 159200.0, 9999.999, 7.2, 9999.999, 9999.999, 1007.1, 1015.6, 6.011558, 43.135978
2022-02-21T14:48:00, 14.9, 24.0, 0.0, 153600.0, 9999.999, 7.4, 9999.999, 9999.999, 1007.1, 1015.6, 6.011558, 43.135978
2022-02-21T14:54:00, 14.6, 23.0, 0.0, 148200.0, 9999.999, 7.6, 9999.999, 9999.999, 1007.1, 1015.6, 6.011558, 43.135978
2022-02-21T15:00:00, 14.5, 23.0, 0.0, 141800.0, 9999.999, 9.4, 9999.999, 9999.999, 1007.0, 1015.5, 6.011558, 43.135978
2022-02-21T15:06:00, 14.6, 24.0, 0.0, 134000.0, 9999.999, 8.4, 9999.999, 9999.999, 1007.1, 1015.6, 6.011558, 43.135978
2022-02-21T15:12:00, 14.7, 24.0, 0.0, 131200.0, 9999.999, 7.7, 9999.999, 9999.999, 1007.1, 1015.6, 6.011558, 43.135978
2022-02-21T15:18:00, 14.4, 24.0, 0.0, 125400.0, 9999.999, 9.5, 9999.999, 9999.999, 1007.1, 1015.6, 6.011558, 43.135978
2022-02-21T15:24:00, 14.6, 23.0, 0.0, 119200.0, 9999.999, 9.2, 9999.999, 9999.999, 1007.1, 1015.6, 6.011558, 43.135978
2022-02-21T15:30:00, 14.5, 24.0, 0.0, 112200.0, 9999.999, 8.1, 9999.999, 9999.999, 1007.2, 1015.7, 6.011558, 43.135978
2022-02-21T15:36:00, 14.4, 24.0, 0.0, 106300.0, 9999.999, 8.3, 9999.999, 9999.999, 1007.3, 1015.8, 6.011558, 43.135978
2022-02-21T15:42:00, 14.3, 25.0, 0.0, 99600.0, 9999.999, 8.7, 9999.999, 9999.999, 1007.0, 1015.5, 6.011558, 43.135978
2022-02-21T15:48:00, 14.3, 26.0, 0.0, 92300.0, 9999.999, 7.5, 9999.999, 9999.999, 1007.3, 1015.8, 6.011558, 43.135978
2022-02-21T15:54:00, 14.2, 26.0, 0.0, 85600.0, 310.0, 6.3, 9999.999, 9999.999, 1007.3, 1015.8, 6.011558, 43.135978
2022-02-21T16:00:00, 14.1, 26.0, 0.0, 78500.0, 300.0, 6.0, 9999.999, 9999.999, 1007.2, 1015.7, 6.011558, 43.135978
2022-02-21T16:06:00, 13.8, 26.0, 0.0, 71100.0, 9999.999, 7.5, 9999.999, 9999.999, 1007.4, 1015.9, 6.011558, 43.135978
2022-02-21T16:12:00, 13.8, 27.0, 0.0, 64100.0, 9999.999, 8.3, 9999.999, 9999.999, 1007.3, 1015.8, 6.011558, 43.135978
2022-02-21T16:18:00, 13.8, 27.0, 0.0, 57400.0, 9999.999, 7.0, 9999.999, 9999.999, 1007.3, 1015.8, 6.011558, 43.135978
2022-02-21T16:24:00, 13.8, 27.0, 0.0, 51100.0, 9999.999, 7.3, 9999.999, 9999.999, 1007.0, 1015.5, 6.011558, 43.135978
2022-02-21T16:30:00, 13.7, 27.0, 0.0, 44700.0, 9999.999, 7.8, 9999.999, 9999.999, 1007.3, 1015.8, 6.011558, 43.135978
2022-02-21T16:36:00, 13.5, 27.0, 0.0, 38400.0, 9999.999, 8.4, 9999.999, 9999.999, 1007.0, 1015.5, 6.011558, 43.135978
2022-02-21T16:42:00, 13.4, 28.0, 0.0, 29900.0, 9999.999, 8.7, 9999.999, 9999.999, 1006.9, 1015.4, 6.011558, 43.135978
2022-02-21T16:48:00, 13.3, 28.0, 0.0, 23000.0, 9999.999, 8.9, 9999.999, 9999.999, 1007.2, 1015.7, 6.011558, 43.135978
2022-02-21T16:54:00, 13.1, 28.0, 0.0, 13800.0, 9999.999, 10.5, 9999.999, 9999.999, 1006.7, 1015.2, 6.011558, 43.135978
2022-02-21T17:00:00, 13.0, 29.0, 0.0, 9200.0, 290.0, 11.5, 9999.999, 9999.999, 1006.1, 1014.6, 6.011558, 43.135978
2022-02-21T17:06:00, 12.9, 29.0, 0.0, 6600.0, 290.0, 11.4, 9999.999, 9999.999, 1006.5, 1015.0, 6.011558, 43.135978
2022-02-21T17:12:00, 12.7, 30.0, 0.0, 3700.0, 300.0, 10.7, 9999.999, 9999.999, 1006.6, 1015.2, 6.011558, 43.135978
2022-02-21T17:18:00, 12.6, 31.0, 0.0, 0.0, 300.0, 10.9, 9999.999, 9999.999, 1006.6, 1015.2, 6.011558, 43.135978
2022-02-21T17:24:00, 12.4, 31.0, 0.0, 0.0, 290.0, 10.2, 9999.999, 9999.999, 1006.5, 1015.1, 6.011558, 43.135978
2022-02-21T17:30:00, 12.4, 31.0, 0.0, 0.0, 300.0, 10.1, 9999.999, 9999.999, 1006.5, 1015.1, 6.011558, 43.135978
2022-02-21T17:36:00, 12.4, 31.0, 0.0, 0.0, 290.0, 10.9, 9999.999, 9999.999, 1006.3, 1014.9, 6.011558, 43.135978
2022-02-21T17:42:00, 12.4, 31.0, 0.0, 0.0, 300.0, 11.6, 9999.999, 9999.999, 1006.1, 1014.7, 6.011558, 43.135978
2022-02-21T17:48:00, 12.2, 32.0, 0.0, 0.0, 300.0, 11.7, 9999.999, 9999.999, 1006.6, 1015.2, 6.011558, 43.135978
2022-02-21T17:54:00, 12.3, 31.0, 0.0, 0.0, 300.0, 10.6, 9999.999, 9999.999, 1006.8, 1015.4, 6.011558, 43.135978
2022-02-21T18:00:00, 12.3, 31.0, 0.0, 0.0, 300.0, 11.7, 9999.999, 9999.999, 1006.6, 1015.2, 6.011558, 43.135978
2022-02-21T18:06:00, 12.2, 32.0, 0.0, 0.0, 310.0, 11.9, 9999.999, 9999.999, 1007.5, 1016.1, 6.011558, 43.135978
2022-02-21T18:12:00, 12.2, 31.0, 0.0, 0.0, 310.0, 9.7, 9999.999, 9999.999, 1007.8, 1016.4, 6.011558, 43.135978
2022-02-21T18:18:00, 12.3, 31.0, 0.0, 0.0, 310.0, 9.4, 9999.999, 9999.999, 1008.3, 1016.9, 6.011558, 43.135978
2022-02-21T18:24:00, 12.1, 32.0, 0.0, 0.0, 310.0, 9.9, 9999.999, 9999.999, 1008.2, 1016.8, 6.011558, 43.135978
2022-02-21T18:30:00, 12.0, 32.0, 0.0, 0.0, 320.0, 10.5, 9999.999, 9999.999, 1008.3, 1016.9, 6.011558, 43.135978
2022-02-21T18:36:00, 12.0, 32.0, 0.0, 0.0, 320.0, 9.4, 9999.999, 9999.999, 1008.6, 1017.2, 6.011558, 43.135978
2022-02-21T18:42:00, 12.1, 31.0, 0.0, 0.0, 320.0, 8.2, 9999.999, 9999.999, 1008.7, 1017.3, 6.011558, 43.135978
2022-02-21T18:48:00, 12.3, 30.0, 0.0, 0.0, 320.0, 8.2, 9999.999, 9999.999, 1008.5, 1017.1, 6.011558, 43.135978
2022-02-21T18:54:00, 12.3, 30.0, 0.0, 0.0, 320.0, 7.4, 9999.999, 9999.999, 1008.9, 1017.5, 6.011558, 43.135978
2022-02-21T19:00:00, 12.3, 31.0, 0.0, 0.0, 310.0, 6.9, 9999.999, 9999.999, 1008.8, 1017.4, 6.011558, 43.135978
2022-02-21T19:06:00, 12.3, 32.0, 0.0, 0.0, 300.0, 7.9, 9999.999, 9999.999, 1009.4, 1018.0, 6.011558, 43.135978
2022-02-21T19:12:00, 12.2, 32.0, 0.0, 0.0, 300.0, 7.9, 9999.999, 9999.999, 1009.1, 1017.7, 6.011558, 43.135978
2022-02-21T19:18:00, 12.1, 33.0, 0.0, 0.0, 300.0, 7.2, 9999.999, 9999.999, 1009.2, 1017.8, 6.011558, 43.135978
2022-02-21T19:24:00, 12.1, 33.0, 0.0, 0.0, 290.0, 8.4, 9999.999, 9999.999, 1009.6, 1018.2, 6.011558, 43.135978
2022-02-21T19:30:00, 12.0, 34.0, 0.0, 0.0, 300.0, 8.4, 9999.999, 9999.999, 1009.8, 1018.4, 6.011558, 43.135978
2022-02-21T19:36:00, 11.9, 35.0, 0.0, 0.0, 300.0, 6.9, 9999.999, 9999.999, 1009.8, 1018.4, 6.011558, 43.135978
2022-02-21T19:42:00, 11.8, 36.0, 0.0, 0.0, 300.0, 6.5, 9999.999, 9999.999, 1010.4, 1019.0, 6.011558, 43.135978
2022-02-21T19:48:00, 11.7, 36.0, 0.0, 0.0, 300.0, 6.7, 9999.999, 9999.999, 1010.4, 1019.0, 6.011558, 43.135978
2022-02-21T19:54:00, 11.7, 37.0, 0.0, 0.0, 310.0, 7.0, 9999.999, 9999.999, 1010.5, 1019.1, 6.011558, 43.135978
2022-02-21T20:00:00, 11.6, 37.0, 0.0, 0.0, 310.0, 6.8, 9999.999, 9999.999, 1010.9, 1019.5, 6.011558, 43.135978
2022-02-21T20:06:00, 11.5, 38.0, 0.0, 0.0, 320.0, 7.2, 9999.999, 9999.999, 1010.5, 1019.1, 6.011558, 43.135978
2022-02-21T20:12:00, 11.4, 38.0, 0.0, 0.0, 320.0, 7.9, 9999.999, 9999.999, 1010.8, 1019.4, 6.011558, 43.135978
2022-02-21T20:18:00, 11.4, 37.0, 0.0, 0.0, 310.0, 6.9, 9999.999, 9999.999, 1010.6, 1019.2, 6.011558, 43.135978
2022-02-21T20:24:00, 11.4, 36.0, 0.0, 0.0, 300.0, 5.8, 9999.999, 9999.999, 1010.4, 1019.0, 6.011558, 43.135978
2022-02-21T20:30:00, 11.7, 33.0, 0.0, 0.0, 310.0, 5.7, 9999.999, 9999.999, 1010.5, 1019.1, 6.011558, 43.135978
2022-02-21T20:36:00, 11.9, 31.0, 0.0, 0.0, 310.0, 6.2, 9999.999, 9999.999, 1010.4, 1019.0, 6.011558, 43.135978